Location: Natural Bridges National Monument
(37.6093°N, 109.9767°W)
Time: 12:01:26
(UTC-06:00)

Amateur Radio Satellites - All Passes

Search period start: 24 August 2016 11:31
Search period end: 25 August 2016 11:31
Location: Natural Bridges National Monument, 37.6093°N, 109.9767°W

Satellite Date Start Highest point End Downlink Frequencies (MHz)
Time Altitude Azimuth
CUSAT 1 24 Aug 11:33:00 11:39:12 81° 81° (E) 11:46:49 437.405
BUGSAT 1 24 Aug 11:35:21 11:37:18 13° 65° (ENE) 11:39:15 437.445
ESTCUBE 1 24 Aug 11:51:20 11:54:32 19° 94° (E) 11:57:43 437.505/2401.250
DANDE 24 Aug 11:53:36 11:58:33 46° 80° (E) 12:04:58 436.750
QB50P2 24 Aug 11:54:06 11:58:20 62° 75° (ENE) 12:02:35 145.880/145.840
POLYITAN 1 24 Aug 11:56:38 12:00:52 63° 75° (ENE) 12:05:08 437.675
DUCHIFAT 1 24 Aug 11:57:07 12:01:16 54° 74° (ENE) 12:05:26 145.980
NANOSAT C BR1 24 Aug 12:08:53 12:13:09 82° 75° (ENE) 12:17:26 145.865
ANTELSAT 24 Aug 12:10:01 12:12:30 14° 268° (W) 12:14:59 437.575/2403.000
HUMSAT D 24 Aug 12:11:49 12:15:32 34° 288° (WNW) 12:19:13 437.325/437.525
AISAT 24 Aug 12:15:34 12:18:43 19° 94° (E) 12:21:52 437.250
BEESAT 2 24 Aug 12:30:24 12:33:48 27° 308° (NW) 12:37:15 435.950
AIST 2 24 Aug 12:34:46 12:35:33 10° 107° (ESE) 12:36:21 435.215
UKube-1 24 Aug 12:45:12 12:48:19 19° 95° (E) 12:51:25 .
QB50P1 24 Aug 12:51:18 12:55:03 29° 263° (W) 12:58:49 145.935-145.965
Oscar 19 24 Aug 12:52:13 12:55:50 20° 65° (ENE) 12:59:27 437.125/150
50 SAT 24 Aug 12:53:07 12:56:38 48° 99° (E) 13:00:10 437.505
Cosmos 2499 24 Aug 12:53:41 13:01:42 52° 91° (E) 13:09:10 435.465 / 435.565
AUBIESAT-1 24 Aug 12:55:52 12:59:55 54° 291° (WNW) 13:03:38 437.475
M-CUBED/EXP-1 PRIME 24 Aug 12:58:17 13:02:16 41° 293° (WNW) 13:05:58 437.505
POPSAT HIP 1 24 Aug 13:01:18 13:04:45 23° 264° (W) 13:08:13 437.405
VELOX 1 24 Aug 13:02:19 13:06:46 61° 101° (E) 13:11:09 145.980
PCSat 24 Aug 13:03:22 13:08:43 65° 114° (ESE) 13:14:06 145.827
GONETS M04 24 Aug 13:04:44 13:13:26 78° 94° (E) 13:22:14
JAS-2 24 Aug 13:06:13 13:11:20 64° 259° (WSW) 13:16:39 435.910
BUGSAT 1 24 Aug 13:08:04 13:12:11 51° 260° (W) 13:16:22 437.445
RS-15 24 Aug 13:08:11 13:19:47 50° 251° (WSW) 13:31:07 29.354- 29.394
CUBEBUG 1 24 Aug 13:14:22 13:18:48 78° 285° (WNW) 13:23:13 437.445
CUSAT 1 24 Aug 13:17:02 13:20:50 16° 272° (W) 13:25:00 437.405
JUGNU 24 Aug 13:26:20 13:28:09 11° 172° (S) 13:29:58 437.505
ESTCUBE 1 24 Aug 13:27:16 13:31:26 37° 288° (WNW) 13:35:35 437.505/2401.250
Gurwin Techsat 1B 24 Aug 13:32:16 13:36:14 22° 65° (ENE) 13:40:13 435.225
DX 1 24 Aug 13:32:26 13:36:52 89° 103° (ESE) 13:41:14 434.975-435.025
DUCHIFAT 1 24 Aug 13:36:02 13:37:15 11° 269° (W) 13:38:28 145.980
DANDE 24 Aug 13:37:05 13:41:12 22° 267° (W) 13:46:07 436.750
SPROUT 24 Aug 13:49:36 13:53:53 76° 283° (WNW) 13:58:08 437.525
AISAT 24 Aug 13:51:11 13:55:16 35° 289° (WNW) 13:59:19 437.250
O/OREOS (USA 219) 24 Aug 13:56:17 13:57:11 11° 97° (E) 13:58:04 437.305
ITAMSAT 1 24 Aug 14:00:24 14:02:05 12° 60° (ENE) 14:03:47 435.822/435.867
AIST 2 24 Aug 14:09:26 14:13:29 60° 303° (WNW) 14:17:34 435.215
AO-7 24 Aug 14:13:28 14:18:33 18° 52° (NE) 14:23:36 29.400- 29.500
UKube-1 24 Aug 14:20:30 14:24:24 33° 289° (WNW) 14:28:16 .
TISAT 1 24 Aug 14:22:18 14:26:24 49° 100° (E) 14:30:27 437.305
Oscar 19 24 Aug 14:29:48 14:34:44 48° 260° (W) 14:39:46 437.125/150
VELOX 1 24 Aug 14:40:54 14:42:40 12° 296° (WNW) 14:44:26 145.980
ITUPSAT 1 24 Aug 14:47:16 14:50:15 16° 93° (E) 14:53:15 437.325
Cosmos 2499 24 Aug 14:48:04 14:55:01 29° 287° (WNW) 15:01:37 435.465 / 435.565
PCSat 24 Aug 14:48:50 14:52:35 19° 312° (NW) 14:56:20 145.827
GONETS M04 24 Aug 15:05:03 15:11:12 21° 294° (WNW) 15:17:26
Gurwin Techsat 1B 24 Aug 15:10:48 15:15:51 44° 261° (W) 15:20:56 435.225
JUGNU 24 Aug 15:13:41 15:16:17 13° 182° (S) 15:18:53 437.505
SWISSCUBE 24 Aug 15:21:09 15:25:42 43° 99° (E) 15:30:13 437.505
AO-85 24 Aug 15:25:07 15:28:58 32° 52° (NE) 15:32:34 145.980
O/OREOS (USA 219) 24 Aug 15:31:32 15:35:57 61° 292° (WNW) 15:40:26 437.305
ITAMSAT 1 24 Aug 15:35:37 15:40:49 84° 256° (WSW) 15:46:02 435.822/435.867
BEESAT 24 Aug 15:38:35 15:43:19 61° 101° (E) 15:48:00 436.000
TISAT 1 24 Aug 15:59:40 16:01:35 13° 295° (WNW) 16:03:30 437.305
AO-7 24 Aug 16:01:42 16:10:04 83° 71° (ENE) 16:18:27 29.400- 29.500
ISS 24 Aug 16:20:42 16:23:17 21° 28° (NNE) 16:25:51 145.825
ITUPSAT 1 24 Aug 16:23:45 16:28:18 46° 288° (WNW) 16:32:50 437.325
MOZHAYETS 4 24 Aug 16:24:34 16:28:22 26° 96° (E) 16:32:09
SRMSAT 24 Aug 16:43:43 16:46:21 13° 177° (S) 16:48:59 437.500
KKS-1 24 Aug 16:44:48 16:48:48 32° 97° (E) 16:52:46 437.445
SWISSCUBE 24 Aug 16:59:54 17:03:08 18° 294° (WNW) 17:06:21 437.505
HORYU 2 24 Aug 17:03:16 17:07:21 36° 71° (ENE) 17:11:27 437.375
AO-85 24 Aug 17:06:10 17:09:06 19° 250° (WSW) 17:11:55 145.980
YUBILEINY 24 Aug 17:07:57 17:14:22 22° 67° (ENE) 17:20:41 435.215
BEESAT 24 Aug 17:18:13 17:20:33 14° 297° (WNW) 17:22:54 436.000
STARS 24 Aug 17:30:19 17:34:36 49° 100° (E) 17:38:50 437.465
GOMX 1 24 Aug 17:31:55 17:34:11 13° 61° (ENE) 17:36:30 467.674
CUBESAT XI-V 24 Aug 17:35:20 17:38:35 18° 93° (E) 17:41:51 437.345
BRITE-PL 24 Aug 17:35:30 17:39:34 29° 68° (ENE) 17:43:54 437.365/2234.400
Cubesat XI-IV 24 Aug 17:38:53 17:42:22 18° 64° (ENE) 17:45:51 437.490
LilacSat-2 24 Aug 17:42:55 17:44:20 12° 66° (ENE) 17:45:46 437.200
CUTE-I 24 Aug 17:51:08 17:55:16 23° 66° (ENE) 17:59:24 437.470
ISS 24 Aug 17:56:44 17:59:54 46° 224° (SW) 18:03:02 145.825
DOVE 4 24 Aug 17:57:44 17:58:50 11° 60° (ENE) 17:59:57 437.250
AO-7 24 Aug 17:58:11 18:03:37 19° 268° (W) 18:09:05 29.400- 29.500
NOAA 18 24 Aug 18:00:51 18:05:28 28° 66° (ENE) 18:10:05 137.9125
MOZHAYETS 4 24 Aug 18:01:35 18:05:27 27° 290° (WNW) 18:09:18
NOAA 15 24 Aug 18:03:11 18:08:00 38° 70° (ENE) 18:12:51 137.62
KKS-1 24 Aug 18:21:46 18:25:09 21° 293° (WNW) 18:28:31 437.445
SRMSAT 24 Aug 18:32:40 18:34:38 12° 188° (S) 18:36:37 437.500
Cosmos 2491 24 Aug 18:40:20 18:48:29 47° 88° (E) 18:56:41 435.465 / 435.565
HORYU 2 24 Aug 18:40:52 18:43:59 19° 266° (W) 18:47:07 437.375
CINEMA 3 24 Aug 19:02:29 19:04:56 14° 64° (ENE) 19:07:23 145.822/145.860
YUBILEINY 24 Aug 19:03:16 19:12:01 75° 266° (W) 19:20:40 435.215
GOMX 1 24 Aug 19:06:34 19:11:28 74° 259° (WSW) 19:16:44 467.674
STARS 24 Aug 19:08:11 19:10:30 14° 295° (WNW) 19:12:48 437.465
CANX-2 24 Aug 19:11:23 19:12:22 11° 64° (ENE) 19:13:21 2200.000
CUBESAT XI-V 24 Aug 19:11:43 19:16:05 40° 288° (WNW) 19:20:29 437.345
BRITE-PL 24 Aug 19:14:03 19:17:59 27° 266° (W) 19:22:12 437.365/2234.400
LilacSat-2 24 Aug 19:14:31 19:18:13 44° 261° (W) 19:21:55 437.200
Cubesat XI-IV 24 Aug 19:16:42 19:21:57 56° 259° (W) 19:27:13 437.490
CUTE 1.7 + AOD 2 24 Aug 19:17:58 19:19:10 11° 65° (ENE) 19:20:22 437.475
CUTE-I 24 Aug 19:30:00 19:35:01 41° 261° (W) 19:40:04 437.470
DOVE 4 24 Aug 19:30:34 19:35:37 89° 74° (ENE) 19:40:55 437.250
Cosmos 2504 24 Aug 19:32:48 19:40:01 62° 80° (E) 19:47:04 435.465 / 435.565
BEESAT 3 24 Aug 19:37:15 19:40:45 29° 53° (NE) 19:44:14 437.485
NOAA 18 24 Aug 19:40:50 19:45:56 37° 262° (W) 19:51:03 137.9125
NOAA 15 24 Aug 19:43:42 19:47:51 24° 265° (W) 19:52:02 137.62
HO-68 24 Aug 19:48:24 19:55:11 47° 67° (ENE) 20:01:58 435.675
AIST 1 24 Aug 20:25:21 20:27:28 13° 71° (ENE) 20:29:34
SEEDS 24 Aug 20:29:07 20:33:09 51° 74° (ENE) 20:37:12 437.485
CINEMA 3 24 Aug 20:36:29 20:41:27 68° 259° (W) 20:46:28 145.822/145.860
Cosmos 2491 24 Aug 20:37:41 20:45:26 35° 287° (WNW) 20:53:17 435.465 / 435.565
CANX-2 24 Aug 20:43:32 20:47:41 60° 260° (W) 20:51:50 2200.000
STRAND 1 24 Aug 20:46:02 20:51:10 89° 277° (W) 20:56:17 437.568
BEESAT 2 24 Aug 20:49:19 20:53:21 87° 237° (WSW) 20:57:20 435.950
CUTE 1.7 + AOD 2 24 Aug 20:50:21 20:54:29 58° 260° (W) 20:58:38 437.475
YUBILEINY 24 Aug 21:04:28 21:07:09 12° 285° (WNW) 21:09:49 435.215
AAUSAT CUBESAT 2 24 Aug 21:10:00 21:14:07 86° 75° (ENE) 21:18:14 437.432
COMPASS 1 24 Aug 21:14:42 21:18:46 64° 259° (WSW) 21:22:53 437.405
BEESAT 3 24 Aug 21:15:13 21:18:14 21° 249° (WSW) 21:21:15 437.485
CUBEBUG 2 24 Aug 21:17:28 21:22:13 85° 261° (W) 21:26:53 437.445
UWE-3 24 Aug 21:22:25 21:27:02 73° 76° (ENE) 21:31:34 435.000/436.395/437.385
Oscar 11 24 Aug 21:22:47 21:26:53 44° 73° (ENE) 21:31:00 145.826/435.025
FUNcube-1 24 Aug 21:25:27 21:29:43 45° 74° (ENE) 21:33:56 145.935
Cosmos 2504 24 Aug 21:27:45 21:32:36 20° 278° (W) 21:37:26 435.465 / 435.565
HO-68 24 Aug 21:36:47 21:43:00 31° 263° (W) 21:49:15 435.675
DELFI C3 24 Aug 21:42:57 21:46:20 28° 71° (ENE) 21:49:43 145.870
ZACube-1 24 Aug 21:44:45 21:49:16 82° 78° (ENE) 21:53:43 437.345
PCSat 24 Aug 21:53:21 21:58:18 35° 55° (NE) 22:03:13 145.827
PRISM 24 Aug 21:59:19 22:03:29 64° 102° (ESE) 22:07:37 437.425
AIST 1 24 Aug 22:01:05 22:05:20 47° 267° (W) 22:09:31
AUBIESAT-1 24 Aug 22:07:02 22:09:20 14° 59° (ENE) 22:11:38 437.475
SEEDS 24 Aug 22:07:59 22:09:08 11° 269° (W) 22:10:17 437.485
M-CUBED/EXP-1 PRIME 24 Aug 22:08:51 22:11:56 18° 60° (ENE) 22:15:02 437.505
ANTELSAT 24 Aug 22:27:24 22:28:28 11° 91° (E) 22:29:32 437.575/2403.000
STRAND 1 24 Aug 22:28:58 22:29:32 10° 300° (WNW) 22:30:06 437.568
AIST 2 24 Aug 22:32:26 22:36:29 46° 56° (NE) 22:40:31 435.215
Cosmos 2499 24 Aug 22:49:57 22:52:42 12° 64° (ENE) 22:55:28 435.465 / 435.565
ESTCUBE 1 24 Aug 22:50:00 22:52:24 14° 65° (ENE) 22:54:48 437.505/2401.250
TIGRISAT 24 Aug 22:57:13 23:00:42 24° 95° (E) 23:04:08 435.000
HUMSAT D 24 Aug 23:00:23 23:04:34 68° 259° (W) 23:08:42 437.325/437.525
Oscar 11 24 Aug 23:00:59 23:03:14 14° 268° (W) 23:05:28 145.826/435.025
FUNcube-1 24 Aug 23:03:37 23:06:08 15° 267° (W) 23:08:38 145.935
AISAT 24 Aug 23:12:00 23:14:21 14° 65° (ENE) 23:16:42 437.250
GONETS M04 24 Aug 23:17:52 23:25:49 35° 73° (ENE) 23:33:41
DELFI C3 24 Aug 23:18:28 23:21:11 18° 266° (W) 23:23:54 145.870
UNISAT 6 24 Aug 23:24:10 23:28:24 53° 100° (E) 23:32:33 437.425
50 SAT 24 Aug 23:29:36 23:31:50 16° 69° (ENE) 23:34:05 437.505
PCSat 24 Aug 23:36:54 23:41:34 30° 252° (WSW) 23:46:12 145.827
PRISM 24 Aug 23:37:35 23:38:13 10° 297° (WNW) 23:38:50 437.425
AUBIESAT-1 24 Aug 23:38:39 23:43:11 66° 254° (WSW) 23:47:50 437.475
UKube-1 24 Aug 23:38:57 23:41:07 14° 64° (ENE) 23:43:17 .
M-CUBED/EXP-1 PRIME 24 Aug 23:41:31 23:45:59 50° 256° (WSW) 23:50:35 437.505
QB50P2 24 Aug 23:43:17 23:44:40 11° 91° (E) 23:46:02 145.880/145.840
POLYITAN 1 24 Aug 23:45:47 23:47:12 11° 91° (E) 23:48:37 437.675
NANOSAT C BR1 24 Aug 23:56:39 23:59:03 15° 93° (E) 00:01:25 145.865
VELOX 1 24 Aug 23:57:36 00:01:45 41° 72° (ENE) 00:05:57 145.980
SO-50 24 Aug 23:59:27 00:03:05 21° 110° (ESE) 00:06:41 436.795
ANTELSAT 25 Aug 00:01:19 00:05:32 55° 286° (WNW) 00:09:40 437.575/2403.000
O/OREOS (USA 219) 25 Aug 00:05:09 00:08:13 17° 58° (ENE) 00:11:19 437.305
CUBEBUG 1 25 Aug 00:08:00 00:12:20 67° 76° (ENE) 00:16:44 437.445
AIST 2 25 Aug 00:12:16 00:14:33 14° 251° (WSW) 00:16:50 435.215
JAS-2 25 Aug 00:16:17 00:21:16 21° 93° (E) 00:26:33 435.910
ESTCUBE 1 25 Aug 00:24:25 00:28:45 50° 260° (W) 00:33:08 437.505/2401.250
DX 1 25 Aug 00:25:45 00:30:01 59° 74° (ENE) 00:34:21 434.975-435.025
TIGRISAT 25 Aug 00:33:46 00:37:18 25° 291° (WNW) 00:40:48 435.000
CUSAT 1 25 Aug 00:36:50 00:39:29 83° 277° (W) 00:42:38 437.405
QB50P1 25 Aug 00:37:21 00:41:27 48° 99° (E) 00:45:31 145.935-145.965
Cosmos 2499 25 Aug 00:39:47 00:46:53 87° 81° (E) 00:54:02 435.465 / 435.565
SPROUT 25 Aug 00:40:47 00:45:02 62° 75° (ENE) 00:49:19 437.525
AISAT 25 Aug 00:46:02 00:50:21 51° 260° (W) 00:54:43 437.250
POPSAT HIP 1 25 Aug 00:46:59 00:51:11 63° 101° (ESE) 00:55:20 437.405
BUGSAT 1 25 Aug 00:52:16 00:55:43 25° 96° (E) 00:59:05 437.445
50 SAT 25 Aug 01:02:09 01:05:12 26° 263° (W) 01:08:16 437.505
UNISAT 6 25 Aug 01:02:51 01:04:36 12° 296° (WNW) 01:06:20 437.425
DANDE 25 Aug 01:03:48 01:06:17 39° 96° (E) 01:08:46 436.750
TISAT 1 25 Aug 01:12:08 01:15:48 29° 70° (ENE) 01:19:28 437.305
UKube-1 25 Aug 01:12:31 01:16:42 50° 260° (W) 01:20:55 .
GONETS M04 25 Aug 01:14:25 01:22:45 48° 271° (W) 01:31:03
QB50P2 25 Aug 01:16:38 01:20:45 51° 286° (WNW) 01:24:49 145.880/145.840
RS-15 25 Aug 01:17:15 01:27:06 35° 104° (ESE) 01:37:21 29.354- 29.394
DUCHIFAT 1 25 Aug 01:18:36 01:22:45 60° 285° (WNW) 01:26:51 145.980
POLYITAN 1 25 Aug 01:19:11 01:23:17 51° 286° (WNW) 01:27:20 437.675
NANOSAT C BR1 25 Aug 01:30:59 01:34:56 39° 288° (WNW) 01:38:50 145.865
VELOX 1 25 Aug 01:35:40 01:38:22 16° 267° (W) 01:41:07 145.980
SO-50 25 Aug 01:38:38 01:43:16 43° 306° (NW) 01:47:52 436.795
O/OREOS (USA 219) 25 Aug 01:43:28 01:47:51 44° 254° (WSW) 01:52:12 437.305
ITUPSAT 1 25 Aug 01:52:37 01:55:34 17° 65° (ENE) 01:58:32 437.325
JAS-2 25 Aug 01:59:53 02:06:33 68° 286° (WNW) 02:13:58 435.910
DX 1 25 Aug 02:05:34 02:06:34 11° 269° (W) 02:07:34 434.975-435.025
QB50P1 25 Aug 02:14:46 02:16:47 13° 295° (WNW) 02:18:46 145.935-145.965
POPSAT HIP 1 25 Aug 02:25:35 02:26:23 10° 296° (WNW) 02:27:10 437.405
SWISSCUBE 25 Aug 02:25:41 02:30:07 40° 71° (ENE) 02:34:33 437.505
BUGSAT 1 25 Aug 02:27:40 02:30:57 23° 291° (WNW) 02:34:12 437.445
Cosmos 2499 25 Aug 02:36:11 02:38:54 12° 281° (W) 02:41:36 435.465 / 435.565
BEESAT 25 Aug 02:42:56 02:47:34 56° 73° (ENE) 02:52:14 436.000
Oscar 19 25 Aug 02:42:59 02:48:12 71° 102° (ESE) 02:53:22 437.125/150
TISAT 1 25 Aug 02:48:11 02:51:25 21° 265° (W) 02:54:40 437.305
MOZHAYETS 4 25 Aug 03:25:03 03:28:23 20° 67° (ENE) 03:31:43
RS-15 25 Aug 03:27:18 03:38:43 65° 306° (NW) 03:50:49 29.354- 29.394
ITUPSAT 1 25 Aug 03:28:22 03:32:58 49° 260° (W) 03:37:36 437.325
Gurwin Techsat 1B 25 Aug 03:28:35 03:33:55 86° 104° (ESE) 03:39:14 435.225
PHONESAT 2.4 25 Aug 03:36:01 03:38:53 43° 155° (SSE) 03:41:45 2401.200-2431.200
KKS-1 25 Aug 03:41:13 03:44:49 24° 68° (ENE) 03:48:26 437.445
JAS-2 25 Aug 03:48:45 03:50:36 11° 302° (WNW) 03:52:31 435.910
ITAMSAT 1 25 Aug 03:50:35 03:55:26 40° 99° (E) 04:00:16 435.822/435.867
SWISSCUBE 25 Aug 04:04:45 04:08:03 19° 266° (W) 04:11:21 437.505
AO-7 25 Aug 04:06:17 04:13:22 30° 97° (E) 04:20:23 29.400- 29.500
BEESAT 25 Aug 04:23:21 04:25:40 13° 268° (W) 04:27:59 436.000
Oscar 19 25 Aug 04:24:18 04:26:52 14° 298° (WNW) 04:29:26 437.125/150
STARS 25 Aug 04:24:59 04:29:00 35° 71° (ENE) 04:33:01 437.465
CUBESAT XI-V 25 Aug 04:37:40 04:40:14 15° 65° (ENE) 04:42:49 437.345
Cosmos 2491 25 Aug 04:53:49 05:00:02 21° 66° (ENE) 05:06:14 435.465 / 435.565
MOZHAYETS 4 25 Aug 05:01:07 05:05:17 35° 262° (W) 05:09:28
Gurwin Techsat 1B 25 Aug 05:11:20 05:13:05 12° 300° (WNW) 05:14:51 435.225
PHONESAT 2.4 25 Aug 05:12:16 05:15:13 54° 350° (N) 05:18:11 2401.200-2431.200
KKS-1 25 Aug 05:17:22 05:21:13 28° 263° (W) 05:25:07 437.445
ITAMSAT 1 25 Aug 05:30:38 05:34:37 23° 294° (WNW) 05:38:37 435.822/435.867
AO-85 25 Aug 05:37:18 05:41:18 22° 110° (ESE) 05:45:11 145.980
BRITE-PL 25 Aug 05:43:08 05:45:57 14° 89° (E) 05:48:45 437.365/2234.400
RS-15 25 Aug 05:45:25 05:54:19 23° 335° (NNW) 06:03:31 29.354- 29.394
AO-7 25 Aug 05:58:22 06:06:24 56° 294° (WNW) 06:14:24 29.400- 29.500
STARS 25 Aug 06:02:14 06:05:24 19° 266° (W) 06:08:36 437.465
YUBILEINY 25 Aug 06:06:56 06:13:50 27° 82° (E) 06:20:44 435.215
CUBESAT XI-V 25 Aug 06:12:43 06:17:10 51° 261° (W) 06:21:40 437.345
NOAA 15 25 Aug 06:21:13 06:24:33 17° 93° (E) 06:27:53 137.62
STRAND 1 25 Aug 06:24:33 06:26:32 12° 61° (ENE) 06:28:32 437.568
NOAA 18 25 Aug 06:26:28 06:28:37 12° 91° (E) 06:30:45 137.9125
HORYU 2 25 Aug 06:31:59 06:36:25 85° 280° (W) 06:40:49 437.375
PHONESAT 2.4 25 Aug 06:48:53 06:51:49 51° 8° (N) 06:54:46 2401.200-2431.200
Cosmos 2491 25 Aug 06:48:59 06:57:50 79° 266° (W) 07:06:39 435.465 / 435.565
LilacSat-2 25 Aug 06:50:18 06:53:09 20° 95° (E) 06:55:59 437.200
GOMX 1 25 Aug 07:10:33 07:15:44 43° 97° (E) 07:20:39 467.674
AO-85 25 Aug 07:16:22 07:21:31 48° 304° (NW) 07:26:25 145.980
BRITE-PL 25 Aug 07:19:12 07:24:55 74° 284° (WNW) 07:30:30 437.365/2234.400
DOVE 4 25 Aug 07:32:19 07:36:45 30° 95° (E) 07:40:57 437.250
Cubesat XI-IV 25 Aug 07:35:45 07:41:03 69° 103° (ESE) 07:46:20 437.490
CUTE-I 25 Aug 07:48:32 07:53:53 89° 280° (W) 07:59:11 437.470
AO-7 25 Aug 07:55:21 07:57:20 11° 314° (NW) 07:59:19 29.400- 29.500
NOAA 15 25 Aug 07:59:26 08:04:37 55° 288° (WNW) 08:09:48 137.62
STRAND 1 25 Aug 07:59:55 08:05:02 77° 258° (WSW) 08:10:09 437.568
YUBILEINY 25 Aug 08:01:13 08:09:55 61° 280° (W) 08:18:41 435.215
NOAA 18 25 Aug 08:04:19 08:09:48 75° 286° (WNW) 08:15:14 137.9125
RS-15 25 Aug 08:05:38 08:13:26 18° 12° (NNE) 08:21:18 29.354- 29.394
Cosmos 2504 25 Aug 08:07:20 08:15:43 59° 92° (E) 08:23:34 435.465 / 435.565
LilacSat-2 25 Aug 08:24:22 08:27:22 23° 289° (WNW) 08:30:21 437.200
PHONESAT 2.4 25 Aug 08:25:17 08:28:12 50° 204° (SSW) 08:31:06 2401.200-2431.200
CANX-2 25 Aug 08:30:45 08:34:18 25° 96° (E) 08:37:49 2200.000
SO-50 25 Aug 08:33:02 08:35:17 13° 42° (NE) 08:37:30 436.795
CINEMA 3 25 Aug 08:33:58 08:38:04 33° 96° (E) 08:42:00 145.822/145.860
CUTE 1.7 + AOD 2 25 Aug 08:37:25 08:40:59 26° 96° (E) 08:44:33 437.475
PRISM 25 Aug 08:46:56 08:50:36 33° 71° (ENE) 08:54:18 437.425
GOMX 1 25 Aug 08:49:13 08:53:26 23° 294° (WNW) 08:57:31 467.674
Cosmos 2491 25 Aug 08:49:36 08:53:06 13° 284° (WNW) 08:56:38 435.465 / 435.565
AAUSAT CUBESAT 2 25 Aug 08:55:23 08:57:50 15° 93° (E) 09:00:17 437.432
COMPASS 1 25 Aug 08:59:53 09:03:10 22° 95° (E) 09:06:27 437.405
ISS 25 Aug 09:00:18 09:01:59 13° 128° (SE) 09:03:40 145.825
BRITE-PL 25 Aug 09:02:20 09:02:21 10° 301° (WNW) 09:02:22 437.365/2234.400
HO-68 25 Aug 09:05:18 09:12:21 58° 102° (ESE) 09:19:21 435.675
DOVE 4 25 Aug 09:10:00 09:14:19 28° 292° (WNW) 09:18:25 437.250
CUBEBUG 2 25 Aug 09:11:20 09:14:36 21° 94° (E) 09:17:48 437.445
UWE-3 25 Aug 09:15:32 09:18:02 15° 93° (E) 09:20:29 435.000/436.395/437.385
Cubesat XI-IV 25 Aug 09:17:41 09:20:30 15° 298° (WNW) 09:23:19 437.490
CUTE-I 25 Aug 09:31:51 09:33:06 11° 300° (WNW) 09:34:21 437.470
ZACube-1 25 Aug 09:36:18 09:38:59 17° 93° (E) 09:41:39 437.345
SEEDS 25 Aug 09:50:12 09:54:20 59° 285° (WNW) 09:58:28 437.485
TIGRISAT 25 Aug 09:54:14 09:57:30 19° 67° (ENE) 10:00:43 435.000
Cosmos 2504 25 Aug 10:02:28 10:09:24 27° 288° (WNW) 10:16:03 435.465 / 435.565
CANX-2 25 Aug 10:06:38 10:10:02 24° 290° (WNW) 10:13:24 2200.000
CINEMA 3 25 Aug 10:11:35 10:14:57 21° 293° (WNW) 10:18:13 145.822/145.860
SO-50 25 Aug 10:11:46 10:16:22 80° 242° (WSW) 10:20:49 436.795
CUTE 1.7 + AOD 2 25 Aug 10:13:21 10:16:41 23° 290° (WNW) 10:20:02 437.475
RS-15 25 Aug 10:19:17 10:30:48 42° 44° (NE) 10:42:07 29.354- 29.394
UNISAT 6 25 Aug 10:20:44 10:25:02 39° 72° (ENE) 10:29:16 437.425
PRISM 25 Aug 10:23:22 10:25:59 16° 266° (W) 10:28:38 437.425
AIST 1 25 Aug 10:27:49 10:32:08 74° 277° (W) 10:36:30
AAUSAT CUBESAT 2 25 Aug 10:29:35 10:33:26 38° 287° (WNW) 10:37:18 437.432
ISS 25 Aug 10:34:54 10:38:06 53° 323° (NW) 10:41:21 145.825
COMPASS 1 25 Aug 10:35:11 10:38:40 26° 290° (WNW) 10:42:08 437.405
BEESAT 2 25 Aug 10:39:51 10:43:05 25° 112° (ESE) 10:46:20 435.950
HUMSAT D 25 Aug 10:46:21 10:49:25 20° 95° (E) 10:52:29 437.325/437.525
Oscar 11 25 Aug 10:47:34 10:51:51 66° 285° (WNW) 10:56:07 145.826/435.025
CUBEBUG 2 25 Aug 10:47:37 10:51:12 27° 290° (WNW) 10:54:43 437.445
UWE-3 25 Aug 10:50:47 10:54:39 37° 288° (WNW) 10:58:27 435.000/436.395/437.385
FUNcube-1 25 Aug 10:51:22 10:55:30 63° 284° (WNW) 10:59:33 145.935
HO-68 25 Aug 10:53:54 10:59:35 26° 299° (WNW) 11:05:14 435.675
DELFI C3 25 Aug 10:56:17 11:00:15 62° 101° (E) 11:04:13 145.870
ANTELSAT 25 Aug 10:57:25 11:02:04 83° 258° (WSW) 11:06:39 437.575/2403.000
BEESAT 3 25 Aug 11:02:46 11:06:40 82° 300° (WNW) 11:10:37 437.485
CUSAT 1 25 Aug 11:07:45 11:13:58 60° 80° (E) 11:21:29 437.405
ZACube-1 25 Aug 11:11:36 11:15:22 33° 288° (WNW) 11:19:06 437.345
M-CUBED/EXP-1 PRIME 25 Aug 11:25:05 11:26:55 13° 95° (E) 11:28:43 437.505
